Le nostre stazioni meteo in Italia

Pubblicità
Il mio iltempo24.it
Treviso/Istrana, Italia (16098): Temperatura & dewpoint: 09.09.2019 21:00:00 - 15.09.2019 21:00:00 (CEST)Treviso/Istrana, Italia (16098): velocità del vento: 09.09.2019 21:00:00 - 15.09.2019 21:00:00 (CEST)Treviso/Istrana, Italia (16098): direzione del vento: 09.09.2019 21:00:00 - 15.09.2019 21:00:00 (CEST)Treviso/Istrana, Italia (16098): reduced air pressure: 09.09.2019 21:00:00 - 15.09.2019 21:00:00 (CEST)Treviso/Istrana, Italia (16098): visibility: 09.09.2019 21:00:00 - 15.09.2019 21:00:00 (CEST)
Data & Tempo tt [°C] td [°C] ff [km/h] ff [kn] dd ppp [hPa] vv [km]
15.09.2019 21:00:00 - - - - - - -
15.09.2019 20:00:00 25,0 19,2 0 0 N 1021,5 12
15.09.2019 19:00:00 27,0 20,6 5 3 S 1021,5 15
15.09.2019 18:00:00 27,0 19,9 8 4 S 1021,7 15
15.09.2019 17:00:00 28,0 19,5 8 4 O 1021,9 20
15.09.2019 16:00:00 28,0 19,0 5 3 SO 1022,5 25
15.09.2019 15:00:00 28,6 19,5 8 4 S 1022,9 25
15.09.2019 14:00:00 28,0 19,0 4 2 ONO 1023,8 25
15.09.2019 13:00:00 27,0 18,6 4 2 SSO 1024,2 25
15.09.2019 12:00:00 27,0 18,6 5 3 OSO 1025,0 25
15.09.2019 11:00:00 26,0 17,6 4 2 E 1025,6 25
15.09.2019 10:00:00 24,0 18,2 0 0 N 1025,7 25
15.09.2019 09:00:00 23,0 20,0 4 2 N 1026,0 25
15.09.2019 08:00:00 19,4 18,1 2 1 N 1026,1 25
15.09.2019 07:00:00 19,6 17,7 2 1 NNO 1025,8 20
15.09.2019 06:00:00 18,8 18,3 5 3 N 1025,9 20
15.09.2019 05:00:00 19,0 18,4 4 2 NNE 1026,1 20
15.09.2019 04:00:00 19,2 18,5 9 5 NNE 1026,1 20
15.09.2019 03:00:00 19,4 19,2 9 5 NE 1026,2 25
15.09.2019 02:00:00 19,8 19,5 5 3 NE 1026,2 25
15.09.2019 01:00:00 21,8 20,3 2 1 O 1026,1 25
15.09.2019 00:00:00 21,6 20,8 2 1 S 1026,3 25
14.09.2019 23:00:00 23,4 20,9 2 1 ONO 1026,6 25
14.09.2019 22:00:00 23,8 20,3 8 4 NO 1026,6 25
14.09.2019 21:00:00 24,4 20,5 2 1 NNE 1026,5 25
14.09.2019 20:00:00 25,4 19,3 0 0 N 1026,5 25
14.09.2019 19:00:00 26,8 19,4 5 3 E 1026,2 20
14.09.2019 18:00:00 27,2 18,8 13 7 E 1026,2 25
14.09.2019 17:00:00 28,2 17,7 5 3 SSO 1026,5 30
14.09.2019 16:00:00 28,2 18,0 9 5 SE 1026,8 30
14.09.2019 15:00:00 28,2 18,3 11 6 ENE 1027,3 30
14.09.2019 14:00:00 28,4 17,9 8 4 E 1027,7 30
14.09.2019 13:00:00 27,0 17,8 8 4 ENE 1028,4 30
14.09.2019 12:00:00 26,2 18,1 11 6 NE 1028,8 20
14.09.2019 11:00:00 25,2 18,2 8 4 N 1028,8 20
14.09.2019 10:00:00 23,6 18,3 8 4 NNE 1028,7 20
14.09.2019 09:00:00 22,6 19,0 5 3 N 1028,6 15
14.09.2019 08:00:00 19,2 17,4 0 0 N 1028,2 20
14.09.2019 07:00:00 17,8 16,7 5 3 NNE 1028,0 20
14.09.2019 06:00:00 18,0 17,0 8 4 NNE 1027,8 20
14.09.2019 05:00:00 17,6 17,0 11 6 NE 1027,9 20
14.09.2019 04:00:00 17,2 17,0 8 4 NNE 1028,0 20
14.09.2019 03:00:00 17,8 17,7 0 0 N 1028,1 20
14.09.2019 02:00:00 19,0 18,2 0 0 N 1028,2 20
14.09.2019 01:00:00 19,2 17,9 0 0 N 1028,2 20
14.09.2019 00:00:00 19,2 18,0 0 0 N 1028,4 20
13.09.2019 23:00:00 20,2 18,5 0 0 N 1028,3 20
13.09.2019 22:00:00 20,2 18,2 0 0 N 1028,0 20
13.09.2019 21:00:00 21,8 17,4 0 0 N 1027,9 20
13.09.2019 20:00:00 24,8 17,8 2 1 SE 1027,4 20
13.09.2019 19:00:00 26,8 17,6 5 3 SSE 1027,3 18
13.09.2019 18:00:00 27,8 17,0 2 1 SSO 1027,4 20
13.09.2019 17:00:00 28,4 17,3 5 3 SSO 1027,5 20
13.09.2019 16:00:00 28,6 17,5 5 3 SSE 1027,8 20
13.09.2019 15:00:00 28,8 17,4 5 3 SSO 1028,4 23
13.09.2019 14:00:00 28,4 17,6 4 2 ENE 1028,8 23
13.09.2019 13:00:00 27,4 17,3 5 3 NNE 1029,5 25
13.09.2019 12:00:00 26,4 16,6 4 2 NNE 1030,0 30
13.09.2019 11:00:00 25,4 16,8 8 4 NE 1030,2 30
13.09.2019 10:00:00 24,2 18,2 5 3 N 1030,2 25
13.09.2019 09:00:00 22,0 19,0 5 3 NNO 1030,0 15
13.09.2019 08:00:00 18,6 17,4 8 4 NNO 1030,2 15
13.09.2019 07:00:00 17,0 15,9 0 0 N 1029,9 15
13.09.2019 06:00:00 17,0 15,4 0 0 N 1029,7 10
13.09.2019 05:00:00 17,6 15,9 5 3 NNO 1030,1 10
13.09.2019 04:00:00 17,8 16,1 5 3 NNO 1029,9 10
13.09.2019 03:00:00 18,0 16,9 8 4 NNE 1028,9 10
13.09.2019 02:00:00 18,0 16,9 5 3 N 1028,9 10
13.09.2019 01:00:00 18,0 16,9 5 3 N 1028,9 10
13.09.2019 00:00:00 18,0 17,0 4 2 N 1029,7 10
12.09.2019 23:00:00 19,0 16,8 4 2 N 1028,6 10
12.09.2019 22:00:00 20,0 18,3 0 0 N 1028,4 10
12.09.2019 21:00:00 21,0 18,2 0 0 N 1028,1 10
12.09.2019 20:00:00 22,8 17,3 0 0 N 1027,7 25
12.09.2019 19:00:00 26,2 15,6 0 0 N 1027,3 25
12.09.2019 18:00:00 27,8 15,8 8 4 SO 1027,1 25
12.09.2019 17:00:00 27,8 15,8 8 4 SSO 1027,2 25
12.09.2019 16:00:00 29,0 16,5 0 0 N 1027,5 30
12.09.2019 15:00:00 29,4 16,6 0 0 N 1027,6 30
12.09.2019 14:00:00 29,0 15,9 0 0 N 1027,9 30
12.09.2019 13:00:00 28,8 15,4 0 0 N 1028,0 30
12.09.2019 12:00:00 27,2 16,2 0 0 N 1028,1 30
12.09.2019 11:00:00 26,2 17,3 0 0 N 1027,9 30
12.09.2019 10:00:00 23,2 17,4 5 3 NNO 1027,5 30
12.09.2019 09:00:00 20,6 17,8 0 0 N 1026,8 30
12.09.2019 08:00:00 17,0 15,4 8 4 NNO 1026,8 20
12.09.2019 07:00:00 16,8 15,2 5 3 NNO 1025,3 20
12.09.2019 06:00:00 17,0 15,4 9 5 NNO 1025,0 20
12.09.2019 05:00:00 17,0 15,9 8 4 NNO 1024,7 15
12.09.2019 04:00:00 17,0 16,7 9 5 N 1024,7 15
12.09.2019 03:00:00 17,0 15,4 0 0 N 1024,7 10
12.09.2019 02:00:00 17,0 15,4 8 4 NE 1024,0 10
12.09.2019 01:00:00 18,0 16,0 8 4 N 1023,7 11
12.09.2019 00:00:00 18,0 14,5 0 0 N 1023,1 10
11.09.2019 23:00:00 18,0 14,1 0 0 N 1023,0 10
11.09.2019 22:00:00 20,0 16,4 0 0 N 1022,0 20
11.09.2019 21:00:00 20,4 14,7 0 0 N 1021,7 20
11.09.2019 20:00:00 23,0 14,8 4 2 ONO 1021,0 25
11.09.2019 19:00:00 24,6 15,0 0 0 N 1020,6 35
11.09.2019 18:00:00 24,0 14,1 5 3 N 1020,6 50
11.09.2019 17:00:00 25,4 14,2 0 0 N 1020,6 50
11.09.2019 16:00:00 25,6 12,5 4 2 ENE 1020,6 50
11.09.2019 15:00:00 26,0 13,2 0 0 N 1020,4 50
11.09.2019 14:00:00 25,4 13,6 9 5 NNO 1020,8 50
11.09.2019 13:00:00 25,0 13,9 5 3 NO 1020,8 50
11.09.2019 12:00:00 24,0 13,5 9 5 E 1021,1 50
11.09.2019 11:00:00 23,0 14,0 4 2 ONO 1020,6 50
11.09.2019 10:00:00 22,0 15,8 5 3 NNO 1020,2 50
11.09.2019 09:00:00 18,0 14,5 5 3 NO 1020,3 45
11.09.2019 08:00:00 16,0 15,5 8 4 NO 1020,2 30
11.09.2019 07:00:00 15,2 14,1 5 3 NO 1019,5 30
11.09.2019 06:00:00 15,2 13,0 5 3 NNE 1019,2 30
11.09.2019 05:00:00 16,4 13,3 11 6 NO 1018,9 30
11.09.2019 04:00:00 16,4 14,2 8 4 ONO 1018,9 30
11.09.2019 03:00:00 16,4 14,4 5 3 NO 1018,9 30
11.09.2019 02:00:00 16,6 14,8 0 0 N 1018,9 30
11.09.2019 01:00:00 16,4 14,6 8 4 N 1018,9 20
11.09.2019 00:00:00 17,4 14,7 11 6 NO 1018,5 20
10.09.2019 23:00:00 17,8 15,8 9 5 NO 1018,4 20
10.09.2019 22:00:00 17,6 15,9 8 4 NNO 1017,9 20
10.09.2019 21:00:00 19,2 16,2 9 5 NNO 1017,7 15
10.09.2019 20:00:00 23,0 16,1 8 4 ENE 1016,8 15
10.09.2019 19:00:00 23,0 14,8 8 4 NNE 1016,6 15
10.09.2019 18:00:00 24,0 14,1 13 7 E 1016,6 15
10.09.2019 17:00:00 24,0 15,0 15 8 E 1016,5 15
10.09.2019 16:00:00 24,4 14,8 15 8 E 1016,7 15
10.09.2019 15:00:00 24,0 13,0 8 4 SE 1016,7 15
10.09.2019 14:00:00 23,0 14,0 13 7 NE 1016,8 15
10.09.2019 13:00:00 22,4 16,7 13 7 ENE 1017,1 15
10.09.2019 12:00:00 19,6 15,0 16 9 E 1017,4 15
10.09.2019 11:00:00 19,0 14,5 13 7 ENE 1017,5 15
10.09.2019 10:00:00 18,0 14,5 18 10 ENE 1017,1 15
10.09.2019 09:00:00 17,0 15,4 13 7 E 1016,6 15
10.09.2019 08:00:00 15,8 14,5 15 8 NNE 1016,3 25
10.09.2019 07:00:00 15,2 14,6 13 7 NNE 1016,1 25
10.09.2019 06:00:00 15,2 14,4 15 8 NNE 1016,2 25
10.09.2019 05:00:00 15,4 14,4 11 6 NNE 1016,0 25
10.09.2019 04:00:00 15,8 14,0 9 5 NE 1016,4 25
10.09.2019 03:00:00 16,4 15,3 13 7 NNE 1016,6 25
10.09.2019 02:00:00 17,4 15,9 9 5 NNE 1016,6 25
10.09.2019 01:00:00 17,2 15,7 11 6 NE 1016,2 25
10.09.2019 00:00:00 17,2 15,9 15 8 NNE 1016,1 25
09.09.2019 23:00:00 16,8 16,0 13 7 NNE 1015,8 25
09.09.2019 22:00:00 17,4 16,2 9 5 NNE 1015,4 25
09.09.2019 21:00:00 18,2 16,7 8 4 NNE 1014,8 20

tt = Temperatura
td = dewpoint
ff = velocità del vento
dd = direzione del vento
ppp = reduced air pressure
vv = visibility

Stazioni seguenti

WeatherPro
AMSI
MeteoEarth